Find Starlink 5334

NORAD ID: 56509 Int'l Des: 2023-065 Owner: SPXS Country: US Constellation: starlink operational
LEOCIRCULAR

現在のビュー

3D地球を読み込み中...

About Starlink 5334

Starlink 5334 (NORAD 56509) is a starlink constellation satellite (v1.5) launched May 14, 2023 by SPXS of US. It operates in LEO, CIRCULAR orbit with a mass of 305.00 kg.

次回通過

Passes for default location (London). Set your location on the main map for personalized predictions.

高度履歴

Loading altitude history...

軌道要素

1 56509U 23065G 26264.13722997 .00000327 00000-0 21395-4 0 9997
2 56509 43.0012 188.4630 0001265 256.7755 103.2956 15.27576472186498
Epoch: Sep 21, 2026 • Age: 8 hours

現在のステータス

高度 486.1 km
遠地点 / 近地点 N/A
速度 7.63 km/s
衛星直下点 38.52°N, 72.91°E
打ち上げ日 May 14, 2023
運用期間 3.3 years
タイプ internet

技術仕様

分類 Payload
質量 305.00 kg
乾燥質量 290.00 kg
長さ 0.20 m
スパン 9.00 m
形状 ? Box + pan
製造者 SPXS
バスタイプ Starlink
フェーズステータス In Orbit
所有者/国 SPXS/US

Most Searched